TimePDT,TemperatureF,Dew PointF,Humidity,Sea Level PressureIn,VisibilityMPH,Wind Direction,Wind SpeedMPH,Gust SpeedMPH,PrecipitationIn,Events,Conditions,WindDirDegrees,DateUTC
12:53 AM,70.0,59.0,68,30.02,10.0,North,5.8,-,N/A,,Clear,360,2013-07-02 07:53:00
1:53 AM,68.0,57.9,70,30.04,10.0,Variable,6.9,-,N/A,,Clear,0,2013-07-02 08:53:00
2:53 AM,64.9,57.0,75,30.04,10.0,NNW,5.8,-,N/A,,Clear,340,2013-07-02 09:53:00
3:53 AM,64.0,57.0,78,30.04,10.0,Calm,Calm,-,N/A,,Clear,0,2013-07-02 10:53:00
4:53 AM,64.0,57.0,78,30.05,10.0,Calm,Calm,-,N/A,,Clear,0,2013-07-02 11:53:00
5:53 AM,63.0,57.0,81,30.06,10.0,Calm,Calm,-,N/A,,Clear,0,2013-07-02 12:53:00
7:53 AM,66.0,57.0,73,30.08,10.0,Variable,4.6,-,N/A,,Clear,0,2013-07-02 14:53:00
8:53 AM,66.9,57.9,73,30.08,10.0,NNW,4.6,-,N/A,,Clear,330,2013-07-02 15:53:00
9:53 AM,69.1,57.9,68,30.07,10.0,NNW,4.6,-,N/A,,Clear,330,2013-07-02 16:53:00
10:53 AM,73.0,60.1,64,30.06,10.0,WNW,8.1,-,N/A,,Clear,300,2013-07-02 17:53:00
11:53 AM,77.0,61.0,58,30.05,10.0,WNW,9.2,-,N/A,,Clear,290,2013-07-02 18:53:00
12:53 PM,80.1,57.9,47,30.04,10.0,Variable,6.9,-,N/A,,Clear,0,2013-07-02 19:53:00
1:53 PM,82.9,59.0,44,30.04,10.0,Variable,6.9,-,N/A,,Clear,0,2013-07-02 20:53:00
2:53 PM,84.0,59.0,43,30.04,10.0,NW,8.1,-,N/A,,Clear,320,2013-07-02 21:53:00
3:53 PM,84.9,55.9,37,30.03,10.0,NNW,13.8,20.7,N/A,,Clear,330,2013-07-02 22:53:00
4:53 PM,84.9,55.0,36,30.03,10.0,NNW,10.4,21.9,N/A,,Clear,330,2013-07-02 23:53:00
5:53 PM,84.9,59.0,41,30.01,10.0,NW,9.2,-,N/A,,Clear,320,2013-07-03 00:53:00
6:53 PM,82.9,57.9,42,30.01,10.0,NNW,10.4,-,N/A,,Clear,330,2013-07-03 01:53:00
7:53 PM,80.1,57.0,45,30.01,10.0,NNW,8.1,17.3,N/A,,Clear,330,2013-07-03 02:53:00
8:53 PM,77.0,55.9,48,30.01,10.0,NNW,9.2,-,N/A,,Clear,330,2013-07-03 03:53:00
9:53 PM,73.9,55.9,53,30.04,10.0,NNW,5.8,-,N/A,,Clear,330,2013-07-03 04:53:00
10:53 PM,72.0,54.0,53,30.06,10.0,Calm,Calm,-,N/A,,Clear,0,2013-07-03 05:53:00
11:53 PM,69.1,53.1,57,30.07,10.0,NW,4.6,-,N/A,,Clear,320,2013-07-03 06:53:00